Hourly Data Report for March 14, 2013

MONT JOLI A
QUEBEC

48°36'32.000" N
68°12'27.000" W
52.40 m
7055121
71718
YYY

Download Data

Hourly Data (March 2013)
Hourly Data Report for March 14, 2013
TIME
LST
Temp Definition
°C
Dew Point Definition
°C
Rel Hum Definition
%
Precip. Amount Definition
mm

Wind Dir Definition
10's deg

Wind Spd Definition
km/h
Visibility Definition
km
Stn Press Definition
kPa
Hmdx Definition


Wind Chill Definition


Weather Definition


00:00 2.1 -3.2 68   22 11 24.1 99.29     LegendNANA
01:00 1.9 -2.8 71   22 14 24.1 99.19     Mostly Cloudy
02:00 1.7 -1.9 77   22 14 24.1 99.18     LegendNANA
03:00 1.5 -1.6 80   23 17 24.1 99.09     LegendNANA
04:00 1.2 -1.0 85   23 18 24.1 99.07     Mostly Cloudy
05:00 0.3 -2.3 83   23 25 24.1 99.08     LegendNANA
06:00 -0.1 -3.0 81   23 24 24.1 99.11   -6 LegendNANA
07:00 0.0 -3.2 79   22 29 24.1 99.09   -6 Cloudy
08:00 -0.5 -1.2 95   23 24 1.2 99.10   -6 Snow
09:00 -1.1 -2.7 89   25 35 8.1 99.15   -8 Snow
10:00 -0.9 -3.8 81   25 34 24.1 99.19   -8 Cloudy
11:00 -1.2 -4.4 79   24 35 24.1 99.23   -9 LegendNANA
12:00 -1.5 -5.0 77   27 38 24.1 99.27   -9 Snow Showers
13:00 -1.9 -3.5 89   26 34 4.8 99.30   -9 Snow Showers
14:00 -2.1 -3.4 91   25 36 1.2 99.35   -10 Snow Showers
15:00 -1.8 -2.8 93   26 28 0.8 99.39   -9 Snow Showers
16:00 -1.3 -6.1 70   27 37 24.1 99.45   -9 Mostly Cloudy
17:00 -2.0 -5.2 79   24 23 24.1 99.50   -8 LegendNANA
18:00 -2.7 -6.0 78   23 23 48.3 99.58   -9 LegendNANA
19:00 -2.7 -6.2 77   24 26 48.3 99.65   -10 Mostly Cloudy
20:00 -3.7 -7.0 78   24 18 48.3 99.68   -10 LegendNANA
21:00 -3.5 -8.6 68   27 24 48.3 99.72   -10 LegendNANA
22:00 -4.7 -10.9 62   28 30 48.3 99.75   -13 Mostly Cloudy
23:00 -5.2 -11.4 62   28 27 48.3 99.83   -13 LegendNANA

Notes on Data Quality.

Legend

  • E = Estimated
  • M = Missing
  • NA = Not Available*
  • [empty] = Indicates an unobserved value
Date modified: